Location: Boiro
(42.6475°N, 8.8834°W)
Time: 02:59:23
(UTC+02:00)

RAPIDEYE 2 - Visible Passes

Search period start: 01 July 2022 00:00
Search period end: 11 July 2022 00:00
Orbit: 568 x 586 km, 97.6° (Epoch: 30 June)

Date Brightness Start Highest point End Pass type
(mag) Time Alt. Az. Time Alt. Az. Time Alt. Az.
01 Jul ? 00:22:13 10° SSW 00:25:28 23° W 00:28:44 10° NW visible
01 Jul ? 22:50:36 10° SE 22:54:11 31° ENE 22:57:47 10° N visible
02 Jul ? 00:26:25 10° SW 00:29:30 21° W 00:32:36 10° NW visible
02 Jul ? 22:54:28 10° SE 22:58:08 34° ENE 23:01:50 10° N visible
03 Jul ? 00:30:37 10° SW 00:33:31 19° W 00:36:26 10° NW visible
03 Jul ? 22:58:22 10° SE 23:02:07 38° ENE 23:05:53 10° N visible
04 Jul ? 00:34:51 10° SW 00:37:32 17° W 00:40:14 10° NW visible
04 Jul ? 23:02:15 10° SE 23:06:05 42° ENE 23:09:55 10° N visible
05 Jul ? 00:39:07 10° SW 00:41:34 15° W 00:44:01 10° NW visible
05 Jul ? 23:06:10 10° SSE 23:10:03 47° ENE 23:13:58 10° N visible
06 Jul ? 00:43:27 10° WSW 00:45:35 14° W 00:47:44 10° WNW visible
06 Jul ? 23:10:08 10° SSE 23:14:01 52° ENE 23:17:59 10° N visible
07 Jul ? 00:47:51 10° WSW 00:49:36 12° W 00:51:23 10° WNW visible
07 Jul ? 23:14:11 11° SSE 23:18:00 59° ENE 23:22:00 10° N visible
08 Jul ? 00:52:23 10° WSW 00:53:38 11° W 00:54:54 10° WNW visible
08 Jul ? 23:18:13 12° SSE 23:21:58 66° ENE 23:26:00 10° N visible
09 Jul ? 23:22:16 12° SSE 23:25:56 74° ENE 23:30:00 10° N visible
10 Jul ? 23:26:18 13° SSE 23:29:55 82° ENE 23:34:00 10° N visible
